Time,TemperatureF,DewpointF,PressureIn,WindDirection,WindDirectionDegrees,WindSpeedMPH,WindSpeedGustMPH,Humidity,HourlyPrecipIn,Conditions,Clouds,dailyrainin,SoftwareType,DateUTC
2013-01-18 00:00:00,35.2,28.4,29.93,North,0,0.0,2.0,76,0.00,,CLR,0.00,VWS V14.01,2013-01-18 05:00:00,
2013-01-18 00:01:00,35.3,28.5,29.93,North,0,0.0,2.0,76,0.00,,CLR,0.00,VWS V14.01,2013-01-18 05:01:00,
2013-01-18 00:03:00,35.3,28.5,29.93,North,0,0.0,0.0,76,0.00,,CLR,0.00,VWS V14.01,2013-01-18 05:03:00,
2013-01-18 00:08:00,35.2,28.4,29.92,North,0,0.0,0.0,76,0.00,,CLR,0.00,VWS V14.01,2013-01-18 05:08:00,
2013-01-18 00:13:00,35.2,28.7,29.92,North,0,0.0,0.0,77,0.00,,CLR,0.00,VWS V14.01,2013-01-18 05:13:00,
2013-01-18 00:18:00,35.0,28.5,29.92,North,0,0.0,0.0,77,0.00,,CLR,0.00,VWS V14.01,2013-01-18 05:18:00,
2013-01-18 00:23:00,35.0,28.9,29.92,North,0,0.0,0.0,78,0.00,,CLR,0.00,VWS V14.01,2013-01-18 05:23:00,
2013-01-18 00:28:00,34.9,28.8,29.92,North,0,0.0,0.0,78,0.00,,CLR,0.00,VWS V14.01,2013-01-18 05:28:00,
2013-01-18 00:33:00,34.7,28.5,29.92,North,0,0.0,0.0,78,0.00,,,0.00,VWS V14.01,2013-01-18 05:33:00,
2013-01-18 00:38:00,34.6,28.5,29.94,North,0,0.0,0.0,78,0.00,,,0.00,VWS V14.01,2013-01-18 05:38:00,
2013-01-18 00:43:00,34.6,28.8,29.94,North,0,0.0,0.0,79,0.00,,,0.00,VWS V14.01,2013-01-18 05:43:00,
2013-01-18 00:48:00,34.4,28.6,29.94,North,0,0.0,0.0,79,0.00,,,0.00,VWS V14.01,2013-01-18 05:48:00,
2013-01-18 00:53:00,34.4,28.6,29.97,North,0,0.0,0.0,79,0.00,,,0.00,VWS V14.01,2013-01-18 05:53:00,
2013-01-18 00:58:00,34.3,28.8,29.97,North,0,0.0,0.0,80,0.00,,,0.00,VWS V14.01,2013-01-18 05:58:00,
2013-01-18 01:03:00,34.1,28.6,29.97,North,0,0.0,0.0,80,0.00,,,0.00,VWS V14.01,2013-01-18 06:03:00,
2013-01-18 01:08:00,34.1,28.6,29.95,North,0,0.0,0.0,80,0.00,,,0.00,VWS V14.01,2013-01-18 06:08:00,
2013-01-18 01:13:00,34.0,28.8,29.95,North,0,0.0,0.0,81,0.00,,,0.00,VWS V14.01,2013-01-18 06:13:00,
2013-01-18 01:18:00,33.8,28.6,29.95,North,0,0.0,0.0,81,0.00,,,0.00,VWS V14.01,2013-01-18 06:18:00,
2013-01-18 01:23:00,33.7,28.8,29.97,North,0,0.0,0.0,82,0.00,,,0.00,VWS V14.01,2013-01-18 06:23:00,
2013-01-18 01:28:00,33.7,28.8,29.97,North,0,0.0,0.0,82,0.00,,,0.00,VWS V14.01,2013-01-18 06:28:00,
2013-01-18 01:33:00,33.7,28.8,29.97,North,0,0.0,0.0,82,0.00,,CLR,0.00,VWS V14.01,2013-01-18 06:33:00,
2013-01-18 01:38:00,33.5,28.6,29.97,North,0,0.0,0.0,82,0.00,,CLR,0.00,VWS V14.01,2013-01-18 06:38:00,
2013-01-18 01:43:00,33.5,28.6,29.97,North,0,0.0,0.0,82,0.00,,CLR,0.00,VWS V14.01,2013-01-18 06:43:00,
2013-01-18 01:48:00,33.5,28.6,29.97,North,0,0.0,0.0,82,0.00,,CLR,0.00,VWS V14.01,2013-01-18 06:48:00,
2013-01-18 01:53:00,33.5,28.6,29.98,North,0,0.0,0.0,82,0.00,,BKN047,0.00,VWS V14.01,2013-01-18 06:53:00,
2013-01-18 01:58:00,33.7,28.8,29.98,North,0,0.0,0.0,82,0.00,,BKN047,0.00,VWS V14.01,2013-01-18 06:58:00,
2013-01-18 02:03:00,33.7,28.8,29.98,North,0,0.0,0.0,82,0.00,,BKN047,0.00,VWS V14.01,2013-01-18 07:03:00,
2013-01-18 02:08:00,33.5,28.6,29.97,North,0,0.0,0.0,82,0.00,,BKN047,0.00,VWS V14.01,2013-01-18 07:08:00,
2013-01-18 02:13:00,33.4,28.5,29.97,North,0,0.0,0.0,82,0.00,,BKN047,0.00,VWS V14.01,2013-01-18 07:13:00,
2013-01-18 02:18:00,33.2,28.3,29.97,North,0,0.0,0.0,82,0.00,,BKN047,0.00,VWS V14.01,2013-01-18 07:18:00,
2013-01-18 02:23:00,33.2,28.3,29.99,North,0,0.0,0.0,82,0.00,,BKN047,0.00,VWS V14.01,2013-01-18 07:23:00,
2013-01-18 02:28:00,33.2,28.3,29.99,North,0,0.0,0.0,82,0.00,,BKN047,0.00,VWS V14.01,2013-01-18 07:28:00,
2013-01-18 02:33:00,33.2,28.6,29.99,North,0,0.0,0.0,83,0.00,,BKN049,0.00,VWS V14.01,2013-01-18 07:33:00,
2013-01-18 02:38:00,33.1,28.5,29.98,North,0,0.0,0.0,83,0.00,,BKN049,0.00,VWS V14.01,2013-01-18 07:38:00,
2013-01-18 02:43:00,33.1,28.5,29.98,North,0,0.0,0.0,83,0.00,,BKN049,0.00,VWS V14.01,2013-01-18 07:43:00,
2013-01-18 02:48:00,32.9,28.3,29.98,North,0,0.0,0.0,83,0.00,,BKN049,0.00,VWS V14.01,2013-01-18 07:48:00,
2013-01-18 02:53:00,32.7,28.1,29.99,North,0,0.0,0.0,83,0.00,,SCT047,0.00,VWS V14.01,2013-01-18 07:53:00,
2013-01-18 02:58:00,32.5,27.9,29.99,North,0,0.0,0.0,83,0.00,,SCT047,0.00,VWS V14.01,2013-01-18 07:58:00,
2013-01-18 03:03:00,32.2,27.6,29.99,North,0,0.0,0.0,83,0.00,,SCT047,0.00,VWS V14.01,2013-01-18 08:03:00,
2013-01-18 03:08:00,32.1,27.8,29.99,North,0,0.0,0.0,84,0.00,,SCT047,0.00,VWS V14.01,2013-01-18 08:08:00,
2013-01-18 03:13:00,32.1,27.8,29.99,North,0,0.0,0.0,84,0.00,,SCT047,0.00,VWS V14.01,2013-01-18 08:13:00,
2013-01-18 03:18:00,32.1,27.8,29.99,North,0,0.0,0.0,84,0.00,,SCT047,0.00,VWS V14.01,2013-01-18 08:18:00,
2013-01-18 03:23:00,32.4,28.1,30.00,North,0,0.0,0.0,84,0.00,,SCT047,0.00,VWS V14.01,2013-01-18 08:23:00,
2013-01-18 03:28:00,32.5,28.2,30.00,North,0,0.0,0.0,84,0.00,,SCT047,0.00,VWS V14.01,2013-01-18 08:28:00,
2013-01-18 03:33:00,32.7,28.4,30.00,North,0,0.0,1.0,84,0.00,,BKN047,0.00,VWS V14.01,2013-01-18 08:33:00,
2013-01-18 03:38:00,32.9,28.0,30.00,North,8,2.0,4.0,82,0.00,,BKN047,0.00,VWS V14.01,2013-01-18 08:38:00,
2013-01-18 03:43:00,33.4,28.2,30.00,North,0,0.0,0.0,81,0.00,,BKN047,0.00,VWS V14.01,2013-01-18 08:43:00,
2013-01-18 03:48:00,33.7,27.9,30.00,NNE,16,4.0,5.0,79,0.00,,BKN047,0.00,VWS V14.01,2013-01-18 08:48:00,
2013-01-18 03:53:00,33.8,27.7,30.01,NNE,24,2.0,5.0,78,0.00,,SCT055,0.00,VWS V14.01,2013-01-18 08:53:00,
2013-01-18 03:58:00,33.8,27.4,30.01,North,0,5.0,5.0,77,0.00,,SCT055,0.00,VWS V14.01,2013-01-18 08:58:00,
2013-01-18 04:03:00,33.8,26.4,30.01,NNW,337,0.0,2.0,74,0.00,,SCT055,0.00,VWS V14.01,2013-01-18 09:03:00,
2013-01-18 04:08:00,33.8,26.7,30.01,North,3,2.0,2.0,75,0.00,,SCT055,0.00,VWS V14.01,2013-01-18 09:08:00,
2013-01-18 04:13:00,33.7,27.0,30.01,NE,34,0.0,1.0,76,0.00,,SCT055,0.00,VWS V14.01,2013-01-18 09:13:00,
2013-01-18 04:18:00,33.5,26.4,30.01,North,358,0.0,2.0,75,0.00,,SCT055,0.00,VWS V14.01,2013-01-18 09:18:00,
2013-01-18 04:23:00,33.4,26.0,30.02,North,9,4.0,5.0,74,0.00,,SCT055,0.00,VWS V14.01,2013-01-18 09:23:00,
2013-01-18 04:28:00,33.4,26.0,30.02,North,6,1.0,1.0,74,0.00,,SCT055,0.00,VWS V14.01,2013-01-18 09:28:00,
2013-01-18 04:33:00,33.4,25.7,30.02,North,0,1.0,3.0,73,0.00,,OVC050,0.00,VWS V14.01,2013-01-18 09:33:00,
2013-01-18 04:38:00,33.2,25.8,30.03,North,2,0.0,0.0,74,0.00,,OVC050,0.00,VWS V14.01,2013-01-18 09:38:00,
2013-01-18 04:43:00,33.1,25.7,30.03,NNE,16,1.0,3.0,74,0.00,,OVC050,0.00,VWS V14.01,2013-01-18 09:43:00,
2013-01-18 04:48:00,33.1,25.7,30.03,North,356,3.0,4.0,74,0.00,,OVC050,0.00,VWS V14.01,2013-01-18 09:48:00,
2013-01-18 04:53:00,33.1,25.4,30.04,North,2,2.0,7.0,73,0.00,,OVC055,0.00,VWS V14.01,2013-01-18 09:53:00,
2013-01-18 04:58:00,33.1,25.4,30.04,NNE,19,3.0,5.0,73,0.00,,OVC055,0.00,VWS V14.01,2013-01-18 09:58:00,
2013-01-18 05:03:00,33.1,25.1,30.04,North,0,1.0,7.0,72,0.00,,OVC055,0.00,VWS V14.01,2013-01-18 10:03:00,
2013-01-18 05:08:00,33.1,24.7,30.05,North,8,2.0,6.0,71,0.00,,OVC055,0.00,VWS V14.01,2013-01-18 10:08:00,
2013-01-18 05:13:00,33.1,24.7,30.05,NNE,13,4.0,8.0,71,0.00,,OVC055,0.00,VWS V14.01,2013-01-18 10:13:00,
2013-01-18 05:18:00,32.9,23.5,30.05,North,7,4.0,9.0,68,0.00,,OVC055,0.00,VWS V14.01,2013-01-18 10:18:00,
2013-01-18 05:23:00,32.8,23.1,30.07,North,0,8.0,13.0,67,0.00,,OVC055,0.00,VWS V14.01,2013-01-18 10:23:00,
2013-01-18 05:28:00,32.5,22.4,30.07,NNW,331,8.0,15.0,66,0.00,,OVC055,0.00,VWS V14.01,2013-01-18 10:28:00,
2013-01-18 05:33:00,32.2,21.8,30.07,North,352,6.0,11.0,65,0.00,,OVC047,0.00,VWS V14.01,2013-01-18 10:33:00,
2013-01-18 05:38:00,31.6,21.2,30.09,North,358,6.0,12.0,65,0.00,,OVC047,0.00,VWS V14.01,2013-01-18 10:38:00,
2013-01-18 05:43:00,31.2,20.8,30.09,NNE,18,12.0,15.0,65,0.00,,OVC047,0.00,VWS V14.01,2013-01-18 10:43:00,
2013-01-18 05:48:00,30.9,21.6,30.09,North,349,7.0,11.0,68,0.00,,OVC047,0.00,VWS V14.01,2013-01-18 10:48:00,
2013-01-18 05:53:00,30.6,20.6,30.11,North,10,6.0,15.0,66,0.00,,OVC048,0.00,VWS V14.01,2013-01-18 10:53:00,
2013-01-18 05:58:00,30.4,20.4,30.11,North,0,8.0,9.0,66,0.00,,OVC048,0.00,VWS V14.01,2013-01-18 10:58:00,
2013-01-18 06:03:00,30.1,19.8,30.11,North,11,7.0,7.0,65,0.00,,OVC048,0.00,VWS V14.01,2013-01-18 11:03:00,
2013-01-18 06:08:00,29.8,19.5,30.13,North,356,0.0,8.0,65,0.00,,OVC048,0.00,VWS V14.01,2013-01-18 11:08:00,
2013-01-18 06:13:00,29.5,19.2,30.13,North,0,8.0,12.0,65,0.00,,OVC048,0.00,VWS V14.01,2013-01-18 11:13:00,
2013-01-18 06:18:00,29.3,19.0,30.13,East,86,6.0,11.0,65,0.00,,OVC048,0.00,VWS V14.01,2013-01-18 11:18:00,
2013-01-18 06:23:00,29.0,18.7,30.14,NNW,327,8.0,9.0,65,0.00,,OVC048,0.00,VWS V14.01,2013-01-18 11:23:00,
2013-01-18 06:28:00,28.7,18.1,30.14,North,349,7.0,10.0,64,0.00,,OVC048,0.00,VWS V14.01,2013-01-18 11:28:00,
2013-01-18 06:33:00,28.4,17.8,30.14,North,0,10.0,13.0,64,0.00,,SCT060,0.00,VWS V14.01,2013-01-18 11:33:00,
2013-01-18 06:38:00,28.2,17.6,30.16,NNE,21,8.0,8.0,64,0.00,,SCT060,0.00,VWS V14.01,2013-01-18 11:38:00,
2013-01-18 06:43:00,28.1,17.5,30.16,North,5,11.0,11.0,64,0.00,,SCT060,0.00,VWS V14.01,2013-01-18 11:43:00,
2013-01-18 06:48:00,27.9,17.0,30.16,North,0,4.0,4.0,63,0.00,,SCT060,0.00,VWS V14.01,2013-01-18 11:48:00,
2013-01-18 06:53:00,27.6,16.7,30.18,North,0,8.0,10.0,63,0.00,,FEW043,0.00,VWS V14.01,2013-01-18 11:53:00,
2013-01-18 06:58:00,27.6,16.7,30.18,NNW,344,2.0,7.0,63,0.00,,FEW043,0.00,VWS V14.01,2013-01-18 11:58:00,
2013-01-18 07:03:00,27.5,16.6,30.18,North,358,11.0,11.0,63,0.00,,FEW043,0.00,VWS V14.01,2013-01-18 12:03:00,
2013-01-18 07:08:00,27.3,16.0,30.19,North,2,5.0,10.0,62,0.00,,FEW043,0.00,VWS V14.01,2013-01-18 12:08:00,
2013-01-18 07:13:00,27.2,16.6,30.19,North,8,7.0,7.0,64,0.00,,FEW043,0.00,VWS V14.01,2013-01-18 12:13:00,
2013-01-18 07:18:00,27.0,16.1,30.19,North,0,8.0,9.0,63,0.00,,FEW043,0.00,VWS V14.01,2013-01-18 12:18:00,
2013-01-18 07:23:00,26.9,16.0,30.21,NNE,24,3.0,6.0,63,0.00,,FEW043,0.00,VWS V14.01,2013-01-18 12:23:00,
2013-01-18 07:28:00,26.7,15.8,30.21,North,358,1.0,7.0,63,0.00,,FEW043,0.00,VWS V14.01,2013-01-18 12:28:00,
2013-01-18 07:33:00,26.6,15.4,30.21,North,358,8.0,8.0,62,0.00,,FEW039,0.00,VWS V14.01,2013-01-18 12:33:00,
2013-01-18 07:38:00,26.6,15.0,30.22,North,0,4.0,8.0,61,0.00,,FEW039,0.00,VWS V14.01,2013-01-18 12:38:00,
2013-01-18 07:43:00,26.4,14.8,30.22,North,358,9.0,9.0,61,0.00,,FEW039,0.00,VWS V14.01,2013-01-18 12:43:00,
2013-01-18 07:48:00,26.4,14.4,30.22,North,0,5.0,11.0,60,0.00,,FEW039,0.00,VWS V14.01,2013-01-18 12:48:00,
2013-01-18 07:53:00,26.4,14.0,30.24,North,0,7.0,9.0,59,0.00,,BKN048,0.00,VWS V14.01,2013-01-18 12:53:00,
2013-01-18 07:58:00,26.4,13.6,30.24,West,277,0.0,9.0,58,0.00,,BKN048,0.00,VWS V14.01,2013-01-18 12:58:00,
2013-01-18 08:03:00,26.4,13.2,30.24,North,0,8.0,11.0,57,0.00,,BKN048,0.00,VWS V14.01,2013-01-18 13:03:00,
2013-01-18 08:08:00,26.3,13.1,30.25,North,358,5.0,9.0,57,0.00,,BKN048,0.00,VWS V14.01,2013-01-18 13:08:00,
2013-01-18 08:13:00,26.4,12.4,30.25,North,0,8.0,8.0,55,0.00,,BKN048,0.00,VWS V14.01,2013-01-18 13:13:00,
2013-01-18 08:18:00,26.6,12.2,30.25,NNW,345,2.0,5.0,54,0.00,,BKN048,0.00,VWS V14.01,2013-01-18 13:18:00,
2013-01-18 08:23:00,26.6,12.2,30.27,North,0,1.0,3.0,54,0.00,,BKN048,0.00,VWS V14.01,2013-01-18 13:23:00,
2013-01-18 08:28:00,26.7,11.4,30.27,NNW,336,4.0,6.0,52,0.00,,BKN048,0.00,VWS V14.01,2013-01-18 13:28:00,
2013-01-18 08:33:00,26.7,11.4,30.27,North,355,0.0,3.0,52,0.00,,BKN048,0.00,VWS V14.01,2013-01-18 13:33:00,
2013-01-18 08:38:00,26.9,11.6,30.29,North,0,10.0,10.0,52,0.00,,BKN048,0.00,VWS V14.01,2013-01-18 13:38:00,
2013-01-18 08:43:00,27.0,11.3,30.29,North,10,7.0,9.0,51,0.00,,BKN048,0.00,VWS V14.01,2013-01-18 13:43:00,
2013-01-18 08:48:00,27.0,11.3,30.29,NNE,20,11.0,11.0,51,0.00,,BKN048,0.00,VWS V14.01,2013-01-18 13:48:00,
2013-01-18 08:53:00,26.9,9.9,30.31,North,8,11.0,11.0,48,0.00,,BKN060,0.00,VWS V14.01,2013-01-18 13:53:00,
2013-01-18 08:58:00,26.9,10.3,30.31,NNW,345,7.0,9.0,49,0.00,,BKN060,0.00,VWS V14.01,2013-01-18 13:58:00,
2013-01-18 09:03:00,26.9,9.9,30.31,NNW,347,8.0,16.0,48,0.00,,BKN060,0.00,VWS V14.01,2013-01-18 14:03:00,
2013-01-18 09:08:00,26.7,9.7,30.32,NW,314,8.0,9.0,48,0.00,,BKN060,0.00,VWS V14.01,2013-01-18 14:08:00,
2013-01-18 09:13:00,26.7,9.2,30.32,North,0,11.0,11.0,47,0.00,,BKN060,0.00,VWS V14.01,2013-01-18 14:13:00,
2013-01-18 09:18:00,26.7,9.2,30.32,North,0,11.0,11.0,47,0.00,,BKN060,0.00,VWS V14.01,2013-01-18 14:18:00,
2013-01-18 09:23:00,26.7,9.7,30.33,NNW,347,4.0,10.0,48,0.00,,BKN060,0.00,VWS V14.01,2013-01-18 14:23:00,
2013-01-18 09:28:00,26.9,9.9,30.33,NW,304,4.0,9.0,48,0.00,,BKN060,0.00,VWS V14.01,2013-01-18 14:28:00,
2013-01-18 09:33:00,27.0,9.9,30.33,North,358,5.0,10.0,48,0.00,,FEW060,0.00,VWS V14.01,2013-01-18 14:33:00,
2013-01-18 09:38:00,27.3,10.2,30.35,NNW,328,1.0,7.0,48,0.00,,FEW060,0.00,VWS V14.01,2013-01-18 14:38:00,
2013-01-18 09:43:00,27.0,8.5,30.35,North,352,6.0,9.0,45,0.00,,FEW060,0.00,VWS V14.01,2013-01-18 14:43:00,
2013-01-18 09:48:00,27.3,9.3,30.35,NNW,339,6.0,11.0,46,0.00,,FEW060,0.00,VWS V14.01,2013-01-18 14:48:00,
2013-01-18 09:53:00,27.5,9.0,30.35,NNW,338,4.0,8.0,45,0.00,,FEW047,0.00,VWS V14.01,2013-01-18 14:53:00,
2013-01-18 09:58:00,27.5,9.4,30.35,NNW,335,4.0,7.0,46,0.00,,FEW047,0.00,VWS V14.01,2013-01-18 14:58:00,
2013-01-18 10:03:00,27.6,10.5,30.35,North,0,7.0,9.0,48,0.00,,FEW047,0.00,VWS V14.01,2013-01-18 15:03:00,
2013-01-18 10:08:00,27.6,10.0,30.35,North,0,11.0,12.0,47,0.00,,BKN060,0.00,VWS V14.01,2013-01-18 15:08:00,
2013-01-18 10:13:00,27.2,9.6,30.35,North,358,8.0,15.0,47,0.00,,FEW047,0.00,VWS V14.01,2013-01-18 15:13:00,
2013-01-18 10:18:00,27.0,9.9,30.35,NNW,335,2.0,9.0,48,0.00,,FEW047,0.00,VWS V14.01,2013-01-18 15:18:00,
2013-01-18 10:23:00,27.5,10.4,30.37,WNW,288,5.0,6.0,48,0.00,,FEW047,0.00,VWS V14.01,2013-01-18 15:23:00,
2013-01-18 10:28:00,27.8,10.2,30.37,NNW,342,6.0,7.0,47,0.00,,FEW047,0.00,VWS V14.01,2013-01-18 15:28:00,
2013-01-18 10:33:00,27.9,10.3,30.37,NNE,15,8.0,8.0,47,0.00,,SCT045,0.00,VWS V14.01,2013-01-18 15:33:00,
2013-01-18 10:38:00,27.5,10.4,30.37,NNW,338,4.0,8.0,48,0.00,,SCT045,0.00,VWS V14.01,2013-01-18 15:38:00,
2013-01-18 10:43:00,27.6,10.5,30.37,North,358,3.0,7.0,48,0.00,,SCT045,0.00,VWS V14.01,2013-01-18 15:43:00,
2013-01-18 10:48:00,27.5,10.4,30.37,NW,317,6.0,6.0,48,0.00,,SCT045,0.00,VWS V14.01,2013-01-18 15:48:00,
2013-01-18 10:53:00,27.6,10.0,30.37,NW,320,2.0,8.0,47,0.00,,CLR,0.00,VWS V14.01,2013-01-18 15:53:00,
2013-01-18 10:58:00,27.5,9.0,30.37,NW,319,2.0,9.0,45,0.00,,CLR,0.00,VWS V14.01,2013-01-18 15:58:00,
2013-01-18 11:03:00,27.9,10.8,30.37,North,358,7.0,12.0,48,0.00,,CLR,0.00,VWS V14.01,2013-01-18 16:03:00,
2013-01-18 11:08:00,27.8,9.7,30.38,NNE,21,11.0,12.0,46,0.00,,BKN045,0.00,VWS V14.01,2013-01-18 16:08:00,
2013-01-18 11:13:00,28.1,10.0,30.38,NNW,335,4.0,13.0,46,0.00,,CLR,0.00,VWS V14.01,2013-01-18 16:13:00,
2013-01-18 11:18:00,28.2,10.6,30.38,North,356,10.0,10.0,47,0.00,,CLR,0.00,VWS V14.01,2013-01-18 16:18:00,
2013-01-18 11:23:00,28.5,9.4,30.36,NNW,335,3.0,7.0,44,0.00,,CLR,0.00,VWS V14.01,2013-01-18 16:23:00,
2013-01-18 11:28:00,28.5,10.9,30.36,North,358,8.0,9.0,47,0.00,,CLR,0.00,VWS V14.01,2013-01-18 16:28:00,
2013-01-18 11:33:00,28.4,11.2,30.36,North,351,8.0,10.0,48,0.00,,FEW045,0.00,VWS V14.01,2013-01-18 16:33:00,
2013-01-18 11:38:00,28.4,11.2,30.37,North,0,4.0,6.0,48,0.00,,FEW045,0.00,VWS V14.01,2013-01-18 16:38:00,
2013-01-18 11:43:00,28.5,10.9,30.37,North,0,7.0,10.0,47,0.00,,FEW045,0.00,VWS V14.01,2013-01-18 16:43:00,
2013-01-18 11:48:00,28.2,10.6,30.37,NW,322,2.0,4.0,47,0.00,,FEW045,0.00,VWS V14.01,2013-01-18 16:48:00,
2013-01-18 11:53:00,28.4,11.7,30.36,WNW,290,7.0,9.0,49,0.00,,FEW045,0.00,VWS V14.01,2013-01-18 16:53:00,
2013-01-18 11:58:00,28.8,12.1,30.36,North,358,2.0,5.0,49,0.00,,FEW045,0.00,VWS V14.01,2013-01-18 16:58:00,
2013-01-18 12:03:00,28.8,10.1,30.36,North,350,9.0,9.0,45,0.00,,FEW045,0.00,VWS V14.01,2013-01-18 17:03:00,
2013-01-18 12:08:00,28.5,10.9,30.36,West,271,4.0,7.0,47,0.00,,FEW045,0.00,VWS V14.01,2013-01-18 17:08:00,
2013-01-18 12:13:00,28.7,10.6,30.36,WNW,292,5.0,6.0,46,0.00,,FEW045,0.00,VWS V14.01,2013-01-18 17:13:00,
2013-01-18 12:18:00,28.8,11.6,30.36,WSW,254,6.0,6.0,48,0.00,,FEW045,0.00,VWS V14.01,2013-01-18 17:18:00,
2013-01-18 12:23:00,28.7,11.5,30.36,NW,311,0.0,12.0,48,0.00,,FEW045,0.00,VWS V14.01,2013-01-18 17:23:00,
2013-01-18 12:28:00,28.7,10.1,30.36,North,354,3.0,3.0,45,0.00,,FEW045,0.00,VWS V14.01,2013-01-18 17:28:00,
2013-01-18 12:33:00,28.7,11.0,30.36,North,0,7.0,10.0,47,0.00,,FEW045,0.00,VWS V14.01,2013-01-18 17:33:00,
2013-01-18 12:38:00,28.8,10.1,30.35,NW,313,2.0,5.0,45,0.00,,SCT045,0.00,VWS V14.01,2013-01-18 17:38:00,
2013-01-18 12:43:00,28.5,9.4,30.35,North,0,2.0,6.0,44,0.00,,SCT045,0.00,VWS V14.01,2013-01-18 17:43:00,
2013-01-18 12:48:00,28.5,9.4,30.35,NW,326,4.0,10.0,44,0.00,,SCT045,0.00,VWS V14.01,2013-01-18 17:48:00,
2013-01-18 12:53:00,28.8,10.6,30.35,North,358,6.0,6.0,46,0.00,,FEW045,0.00,VWS V14.01,2013-01-18 17:53:00,
2013-01-18 12:58:00,29.4,12.1,30.35,NW,308,7.0,10.0,48,0.00,,FEW045,0.00,VWS V14.01,2013-01-18 17:58:00,
2013-01-18 13:03:00,29.5,11.8,30.35,NW,307,1.0,7.0,47,0.00,,FEW045,0.00,VWS V14.01,2013-01-18 18:03:00,
2013-01-18 13:08:00,29.1,9.9,30.35,WNW,295,3.0,5.0,44,0.00,,FEW045,0.00,VWS V14.01,2013-01-18 18:08:00,
2013-01-18 13:13:00,29.4,10.7,30.35,NNW,341,3.0,5.0,45,0.00,,FEW045,0.00,VWS V14.01,2013-01-18 18:13:00,
2013-01-18 13:18:00,29.5,10.8,30.35,NNW,334,4.0,4.0,45,0.00,,FEW045,0.00,VWS V14.01,2013-01-18 18:18:00,
2013-01-18 13:23:00,29.7,11.5,30.35,NW,322,1.0,7.0,46,0.00,,FEW045,0.00,VWS V14.01,2013-01-18 18:23:00,
2013-01-18 13:28:00,29.7,10.0,30.35,WNW,302,4.0,6.0,43,0.00,,FEW045,0.00,VWS V14.01,2013-01-18 18:28:00,
2013-01-18 13:33:00,29.7,11.9,30.35,WNW,297,6.0,7.0,47,0.00,,SCT046,0.00,VWS V14.01,2013-01-18 18:33:00,
2013-01-18 13:38:00,30.0,11.7,30.35,North,0,5.0,7.0,46,0.00,,SCT046,0.00,VWS V14.01,2013-01-18 18:38:00,
2013-01-18 13:43:00,29.8,11.1,30.35,NW,318,0.0,5.0,45,0.00,,SCT046,0.00,VWS V14.01,2013-01-18 18:43:00,
2013-01-18 13:48:00,30.3,11.0,30.35,NW,314,2.0,9.0,44,0.00,,SCT046,0.00,VWS V14.01,2013-01-18 18:48:00,
2013-01-18 13:53:00,30.3,10.0,30.35,WNW,296,1.0,9.0,42,0.00,,FEW046,0.00,VWS V14.01,2013-01-18 18:53:00,
2013-01-18 13:58:00,30.3,11.0,30.35,NW,309,1.0,4.0,44,0.00,,FEW046,0.00,VWS V14.01,2013-01-18 18:58:00,
2013-01-18 14:03:00,30.3,12.0,30.35,NW,311,0.0,5.0,46,0.00,,FEW046,0.00,VWS V14.01,2013-01-18 19:03:00,
2013-01-18 14:08:00,30.1,9.8,30.35,North,0,2.0,6.0,42,0.00,,FEW046,0.00,VWS V14.01,2013-01-18 19:08:00,
2013-01-18 14:13:00,30.1,10.8,30.35,NW,313,6.0,6.0,44,0.00,,FEW046,0.00,VWS V14.01,2013-01-18 19:13:00,
2013-01-18 14:18:00,30.1,10.3,30.35,WNW,282,3.0,6.0,43,0.00,,FEW046,0.00,VWS V14.01,2013-01-18 19:18:00,
2013-01-18 14:23:00,30.4,11.1,30.35,NNW,333,5.0,6.0,44,0.00,,FEW046,0.00,VWS V14.01,2013-01-18 19:23:00,
2013-01-18 14:28:00,30.3,10.0,30.35,NW,319,5.0,5.0,42,0.00,,FEW046,0.00,VWS V14.01,2013-01-18 19:28:00,
2013-01-18 14:33:00,30.1,9.8,30.35,North,357,0.0,0.0,42,0.00,,CLR,0.00,VWS V14.01,2013-01-18 19:33:00,
2013-01-18 14:38:00,30.4,10.6,30.35,NW,323,5.0,8.0,43,0.00,,CLR,0.00,VWS V14.01,2013-01-18 19:38:00,
2013-01-18 14:43:00,30.6,10.2,30.35,WNW,295,4.0,5.0,42,0.00,,CLR,0.00,VWS V14.01,2013-01-18 19:43:00,
2013-01-18 14:48:00,30.6,9.2,30.35,WNW,285,4.0,5.0,40,0.00,,CLR,0.00,VWS V14.01,2013-01-18 19:48:00,
2013-01-18 14:53:00,30.3,8.9,30.35,North,0,6.0,6.0,40,0.00,,CLR,0.00,VWS V14.01,2013-01-18 19:53:00,
2013-01-18 14:58:00,29.8,8.4,30.35,North,358,3.0,6.0,40,0.00,,CLR,0.00,VWS V14.01,2013-01-18 19:58:00,
2013-01-18 15:03:00,30.0,9.2,30.35,WNW,287,4.0,6.0,41,0.00,,CLR,0.00,VWS V14.01,2013-01-18 20:03:00,
2013-01-18 15:08:00,30.4,10.1,30.35,North,356,5.0,5.0,42,0.00,,CLR,0.00,VWS V14.01,2013-01-18 20:08:00,
2013-01-18 15:13:00,30.3,8.9,30.35,SSW,206,0.0,4.0,40,0.00,,CLR,0.00,VWS V14.01,2013-01-18 20:13:00,
2013-01-18 15:18:00,30.6,8.6,30.35,NW,316,2.0,3.0,39,0.00,,CLR,0.00,VWS V14.01,2013-01-18 20:18:00,
2013-01-18 15:23:00,30.7,8.7,30.36,West,269,0.0,5.0,39,0.00,,CLR,0.00,VWS V14.01,2013-01-18 20:23:00,
2013-01-18 15:28:00,30.7,8.1,30.36,West,269,0.0,4.0,38,0.00,,CLR,0.00,VWS V14.01,2013-01-18 20:28:00,
2013-01-18 15:33:00,30.7,9.2,30.36,NNW,343,0.0,1.0,40,0.00,,CLR,0.00,VWS V14.01,2013-01-18 20:33:00,
2013-01-18 15:38:00,30.9,11.6,30.36,North,358,2.0,2.0,44,0.00,,CLR,0.00,VWS V14.01,2013-01-18 20:38:00,
2013-01-18 15:43:00,30.6,10.2,30.36,NW,312,0.0,2.0,42,0.00,,CLR,0.00,VWS V14.01,2013-01-18 20:43:00,
2013-01-18 15:48:00,30.9,10.5,30.36,WNW,288,4.0,6.0,42,0.00,,CLR,0.00,VWS V14.01,2013-01-18 20:48:00,
2013-01-18 15:53:00,30.7,10.9,30.37,WNW,288,1.0,4.0,43,0.00,,CLR,0.00,VWS V14.01,2013-01-18 20:53:00,
2013-01-18 15:58:00,30.6,9.7,30.37,WNW,297,1.0,6.0,41,0.00,,CLR,0.00,VWS V14.01,2013-01-18 20:58:00,
2013-01-18 16:03:00,30.6,10.2,30.37,NW,304,0.0,3.0,42,0.00,,CLR,0.00,VWS V14.01,2013-01-18 21:03:00,
2013-01-18 16:08:00,30.9,10.0,30.37,West,276,5.0,6.0,41,0.00,,CLR,0.00,VWS V14.01,2013-01-18 21:08:00,
2013-01-18 16:13:00,30.6,10.8,30.37,WSW,243,4.0,4.0,43,0.00,,CLR,0.00,VWS V14.01,2013-01-18 21:13:00,
2013-01-18 16:18:00,30.4,10.1,30.37,WSW,239,2.0,2.0,42,0.00,,CLR,0.00,VWS V14.01,2013-01-18 21:18:00,
2013-01-18 16:23:00,30.1,10.8,30.38,West,270,1.0,2.0,44,0.00,,CLR,0.00,VWS V14.01,2013-01-18 21:23:00,
2013-01-18 16:28:00,29.8,10.1,30.38,WNW,284,3.0,4.0,43,0.00,,CLR,0.00,VWS V14.01,2013-01-18 21:28:00,
2013-01-18 16:33:00,29.4,9.7,30.38,WSW,250,8.0,8.0,43,0.00,,CLR,0.00,VWS V14.01,2013-01-18 21:33:00,
2013-01-18 16:38:00,29.1,9.4,30.38,WSW,240,2.0,5.0,43,0.00,,CLR,0.00,VWS V14.01,2013-01-18 21:38:00,
2013-01-18 16:43:00,29.1,9.4,30.38,WSW,252,3.0,6.0,43,0.00,,CLR,0.00,VWS V14.01,2013-01-18 21:43:00,
2013-01-18 16:48:00,29.0,10.8,30.38,WSW,255,2.0,2.0,46,0.00,,CLR,0.00,VWS V14.01,2013-01-18 21:48:00,
2013-01-18 16:53:00,28.7,10.6,30.38,WNW,288,0.0,0.0,46,0.00,,CLR,0.00,VWS V14.01,2013-01-18 21:53:00,
2013-01-18 16:58:00,28.5,10.4,30.38,WNW,285,3.0,3.0,46,0.00,,CLR,0.00,VWS V14.01,2013-01-18 21:58:00,
2013-01-18 17:03:00,28.4,10.8,30.38,WNW,292,1.0,2.0,47,0.00,,CLR,0.00,VWS V14.01,2013-01-18 22:03:00,
2013-01-18 17:09:00,28.4,9.8,30.38,WNW,291,0.0,2.0,45,0.00,,CLR,0.00,VWS V14.01,2013-01-18 22:09:00,
2013-01-18 17:14:00,28.2,11.0,30.38,WNW,294,1.0,4.0,48,0.00,,CLR,0.00,VWS V14.01,2013-01-18 22:14:00,
2013-01-18 17:18:00,28.2,10.6,30.38,WNW,294,1.0,1.0,47,0.00,,CLR,0.00,VWS V14.01,2013-01-18 22:18:00,
2013-01-18 17:23:00,28.1,10.5,30.38,WNW,284,0.0,0.0,47,0.00,,CLR,0.00,VWS V14.01,2013-01-18 22:23:00,
2013-01-18 17:28:00,27.9,10.8,30.38,WNW,283,0.0,0.0,48,0.00,,CLR,0.00,VWS V14.01,2013-01-18 22:28:00,
2013-01-18 17:34:00,27.9,11.2,30.38,WNW,283,0.0,0.0,49,0.00,,CLR,0.00,VWS V14.01,2013-01-18 22:34:00,
2013-01-18 17:39:00,27.6,11.9,30.38,WNW,283,0.0,0.0,51,0.00,,CLR,0.00,VWS V14.01,2013-01-18 22:39:00,
2013-01-18 17:44:00,27.5,11.8,30.38,WNW,283,0.0,0.0,51,0.00,,CLR,0.00,VWS V14.01,2013-01-18 22:44:00,
2013-01-18 17:49:00,27.2,11.5,30.38,WNW,283,0.0,0.0,51,0.00,,CLR,0.00,VWS V14.01,2013-01-18 22:49:00,
2013-01-18 17:54:00,26.9,11.2,30.38,WNW,283,0.0,0.0,51,0.00,,CLR,0.00,VWS V14.01,2013-01-18 22:54:00,
2013-01-18 17:59:00,26.7,11.4,30.38,WNW,283,0.0,0.0,52,0.00,,CLR,0.00,VWS V14.01,2013-01-18 22:59:00,
2013-01-18 18:04:00,26.4,11.6,30.38,WNW,283,0.0,0.0,53,0.00,,CLR,0.00,VWS V14.01,2013-01-18 23:04:00,
2013-01-18 18:09:00,26.3,11.9,30.38,WNW,283,0.0,0.0,54,0.00,,CLR,0.00,VWS V14.01,2013-01-18 23:09:00,
2013-01-18 18:14:00,26.0,11.6,30.38,WNW,283,0.0,0.0,54,0.00,,CLR,0.00,VWS V14.01,2013-01-18 23:14:00,
2013-01-18 18:19:00,25.8,13.1,30.38,WNW,283,0.0,0.0,58,0.00,,CLR,0.00,VWS V14.01,2013-01-18 23:19:00,
2013-01-18 18:24:00,25.7,12.6,30.39,WNW,283,0.0,0.0,57,0.00,,CLR,0.00,VWS V14.01,2013-01-18 23:24:00,
2013-01-18 18:29:00,25.6,12.9,30.39,WNW,283,0.0,0.0,58,0.00,,CLR,0.00,VWS V14.01,2013-01-18 23:29:00,
2013-01-18 18:34:00,25.6,12.5,30.39,WNW,283,0.0,0.0,57,0.00,,CLR,0.00,VWS V14.01,2013-01-18 23:34:00,
2013-01-18 18:39:00,25.6,13.3,30.40,WNW,283,0.0,1.0,59,0.00,,CLR,0.00,VWS V14.01,2013-01-18 23:39:00,
2013-01-18 18:44:00,25.8,12.7,30.40,West,276,0.0,1.0,57,0.00,,CLR,0.00,VWS V14.01,2013-01-18 23:44:00,
2013-01-18 18:49:00,25.8,13.5,30.40,West,276,0.0,0.0,59,0.00,,CLR,0.00,VWS V14.01,2013-01-18 23:49:00,
2013-01-18 18:54:00,26.0,13.6,30.40,West,276,0.0,0.0,59,0.00,,CLR,0.00,VWS V14.01,2013-01-18 23:54:00,
2013-01-18 18:59:00,26.0,13.3,30.40,West,276,0.0,0.0,58,0.00,,CLR,0.00,VWS V14.01,2013-01-18 23:59:00,
2013-01-18 19:04:00,26.0,13.6,30.40,West,276,0.0,1.0,59,0.00,,CLR,0.00,VWS V14.01,2013-01-19 00:04:00,
2013-01-18 19:09:00,26.0,14.0,30.40,West,276,0.0,0.0,60,0.00,,CLR,0.00,VWS V14.01,2013-01-19 00:09:00,
2013-01-18 19:14:00,26.0,14.0,30.40,West,276,0.0,0.0,60,0.00,,CLR,0.00,VWS V14.01,2013-01-19 00:14:00,
2013-01-18 19:19:00,26.0,13.3,30.40,West,276,0.0,1.0,58,0.00,,CLR,0.00,VWS V14.01,2013-01-19 00:19:00,
2013-01-18 19:24:00,26.0,14.0,30.40,West,276,0.0,1.0,60,0.00,,CLR,0.00,VWS V14.01,2013-01-19 00:24:00,
2013-01-18 19:29:00,26.1,13.0,30.40,WSW,241,0.0,0.0,57,0.00,,CLR,0.00,VWS V14.01,2013-01-19 00:29:00,
2013-01-18 19:34:00,26.3,13.1,30.40,WSW,241,0.0,0.0,57,0.00,,CLR,0.00,VWS V14.01,2013-01-19 00:34:00,
2013-01-18 19:39:00,26.3,13.1,30.40,West,266,0.0,6.0,57,0.00,,CLR,0.00,VWS V14.01,2013-01-19 00:39:00,
2013-01-18 19:44:00,26.4,12.8,30.40,West,262,0.0,2.0,56,0.00,,CLR,0.00,VWS V14.01,2013-01-19 00:44:00,
2013-01-18 19:49:00,26.4,12.4,30.40,WSW,258,0.0,1.0,55,0.00,,CLR,0.00,VWS V14.01,2013-01-19 00:49:00,
2013-01-18 19:54:00,26.6,11.8,30.39,WSW,258,0.0,1.0,53,0.00,,CLR,0.00,VWS V14.01,2013-01-19 00:54:00,
2013-01-18 19:59:00,26.7,12.3,30.39,SW,236,0.0,1.0,54,0.00,,CLR,0.00,VWS V14.01,2013-01-19 00:59:00,
2013-01-18 20:04:00,26.7,13.1,30.39,WSW,241,0.0,1.0,56,0.00,,CLR,0.00,VWS V14.01,2013-01-19 01:04:00,
2013-01-18 20:09:00,26.6,12.2,30.39,WSW,241,0.0,0.0,54,0.00,,CLR,0.00,VWS V14.01,2013-01-19 01:09:00,
2013-01-18 20:14:00,26.6,12.6,30.39,SW,223,0.0,0.0,55,0.00,,CLR,0.00,VWS V14.01,2013-01-19 01:14:00,
2013-01-18 20:19:00,26.4,12.4,30.39,SW,218,0.0,2.0,55,0.00,,CLR,0.00,VWS V14.01,2013-01-19 01:19:00,
2013-01-18 20:24:00,26.3,11.9,30.39,SW,218,0.0,1.0,54,0.00,,CLR,0.00,VWS V14.01,2013-01-19 01:24:00,
2013-01-18 20:29:00,26.1,12.2,30.39,SW,217,0.0,0.0,55,0.00,,CLR,0.00,VWS V14.01,2013-01-19 01:29:00,
2013-01-18 20:34:00,26.0,11.6,30.39,SW,217,0.0,0.0,54,0.00,,CLR,0.00,VWS V14.01,2013-01-19 01:34:00,
2013-01-18 20:39:00,26.0,11.6,30.39,SW,217,0.0,1.0,54,0.00,,CLR,0.00,VWS V14.01,2013-01-19 01:39:00,
2013-01-18 20:44:00,25.8,12.3,30.39,SW,217,0.0,0.0,56,0.00,,CLR,0.00,VWS V14.01,2013-01-19 01:44:00,
2013-01-18 20:49:00,25.8,11.5,30.39,SW,217,0.0,1.0,54,0.00,,CLR,0.00,VWS V14.01,2013-01-19 01:49:00,
2013-01-18 20:54:00,25.7,12.2,30.39,SW,217,0.0,1.0,56,0.00,,CLR,0.00,VWS V14.01,2013-01-19 01:54:00,
2013-01-18 20:59:00,25.7,12.6,30.39,SW,217,2.0,2.0,57,0.00,,CLR,0.00,VWS V14.01,2013-01-19 01:59:00,
2013-01-18 21:04:00,25.6,12.1,30.39,SW,218,1.0,1.0,56,0.00,,CLR,0.00,VWS V14.01,2013-01-19 02:04:00,
2013-01-18 21:09:00,25.6,12.1,30.39,SW,221,0.0,1.0,56,0.00,,CLR,0.00,VWS V14.01,2013-01-19 02:09:00,
2013-01-18 21:14:00,25.6,12.9,30.39,SW,221,0.0,0.0,58,0.00,,CLR,0.00,VWS V14.01,2013-01-19 02:14:00,
2013-01-18 21:19:00,25.4,12.3,30.39,SW,221,0.0,0.0,57,0.00,,CLR,0.00,VWS V14.01,2013-01-19 02:19:00,
2013-01-18 21:24:00,25.3,12.6,30.37,SW,221,0.0,0.0,58,0.00,,CLR,0.00,VWS V14.01,2013-01-19 02:24:00,
2013-01-18 21:29:00,25.1,12.0,30.37,SSW,207,0.0,0.0,57,0.00,,CLR,0.00,VWS V14.01,2013-01-19 02:29:00,
2013-01-18 21:34:00,25.3,11.8,30.37,SSW,207,0.0,0.0,56,0.00,,CLR,0.00,VWS V14.01,2013-01-19 02:34:00,
2013-01-18 21:39:00,25.4,11.5,30.37,SSW,207,0.0,0.0,55,0.00,,CLR,0.00,VWS V14.01,2013-01-19 02:39:00,
2013-01-18 21:44:00,25.6,11.7,30.37,West,259,0.0,1.0,55,0.00,,CLR,0.00,VWS V14.01,2013-01-19 02:44:00,
2013-01-18 21:49:00,25.6,11.3,30.37,West,259,0.0,1.0,54,0.00,,CLR,0.00,VWS V14.01,2013-01-19 02:49:00,
2013-01-18 21:54:00,25.7,11.4,30.37,SSW,203,0.0,0.0,54,0.00,,CLR,0.00,VWS V14.01,2013-01-19 02:54:00,
2013-01-18 21:59:00,25.8,11.5,30.37,WSW,258,0.0,1.0,54,0.00,,CLR,0.00,VWS V14.01,2013-01-19 02:59:00,
2013-01-18 22:04:00,25.8,11.0,30.37,WSW,250,0.0,2.0,53,0.00,,CLR,0.00,VWS V14.01,2013-01-19 03:04:00,
2013-01-18 22:09:00,26.0,10.8,30.36,SSW,212,0.0,0.0,52,0.00,,CLR,0.00,VWS V14.01,2013-01-19 03:09:00,
2013-01-18 22:14:00,26.0,10.8,30.36,SSW,212,0.0,0.0,52,0.00,,CLR,0.00,VWS V14.01,2013-01-19 03:14:00,
2013-01-18 22:19:00,25.8,10.6,30.36,SSW,212,0.0,0.0,52,0.00,,CLR,0.00,VWS V14.01,2013-01-19 03:19:00,
2013-01-18 22:24:00,25.7,10.9,30.35,SSW,212,0.0,0.0,53,0.00,,CLR,0.00,VWS V14.01,2013-01-19 03:24:00,
2013-01-18 22:29:00,25.6,11.3,30.35,SSW,212,0.0,0.0,54,0.00,,CLR,0.00,VWS V14.01,2013-01-19 03:29:00,
2013-01-18 22:34:00,25.4,10.7,30.35,SSW,212,0.0,0.0,53,0.00,,CLR,0.00,VWS V14.01,2013-01-19 03:34:00,
2013-01-18 22:39:00,25.4,10.7,30.35,SSW,212,0.0,0.0,53,0.00,,CLR,0.00,VWS V14.01,2013-01-19 03:39:00,
2013-01-18 22:44:00,25.3,11.0,30.35,SSW,212,0.0,0.0,54,0.00,,CLR,0.00,VWS V14.01,2013-01-19 03:44:00,
2013-01-18 22:49:00,25.3,11.8,30.35,SSW,212,0.0,0.0,56,0.00,,CLR,0.00,VWS V14.01,2013-01-19 03:49:00,
2013-01-18 22:54:00,25.1,12.0,30.35,SSW,212,0.0,0.0,57,0.00,,CLR,0.00,VWS V14.01,2013-01-19 03:54:00,
2013-01-18 22:59:00,25.1,12.0,30.35,WSW,245,0.0,1.0,57,0.00,,CLR,0.00,VWS V14.01,2013-01-19 03:59:00,
2013-01-18 23:04:00,25.1,12.4,30.35,WSW,238,1.0,2.0,58,0.00,,CLR,0.00,VWS V14.01,2013-01-19 04:04:00,
2013-01-18 23:09:00,25.1,12.4,30.34,SW,236,1.0,3.0,58,0.00,,CLR,0.00,VWS V14.01,2013-01-19 04:09:00,
2013-01-18 23:14:00,25.3,12.2,30.34,WSW,256,0.0,3.0,57,0.00,,CLR,0.00,VWS V14.01,2013-01-19 04:14:00,
2013-01-18 23:19:00,25.3,12.2,30.34,WSW,252,0.0,1.0,57,0.00,,CLR,0.00,VWS V14.01,2013-01-19 04:19:00,
2013-01-18 23:24:00,25.4,13.1,30.33,SSW,212,0.0,3.0,59,0.00,,CLR,0.00,VWS V14.01,2013-01-19 04:24:00,
2013-01-18 23:29:00,25.6,12.9,30.33,WSW,250,1.0,2.0,58,0.00,,CLR,0.00,VWS V14.01,2013-01-19 04:29:00,
2013-01-18 23:34:00,25.7,12.6,30.33,SW,227,2.0,2.0,57,0.00,,CLR,0.00,VWS V14.01,2013-01-19 04:34:00,
2013-01-18 23:39:00,25.8,13.1,30.33,WSW,238,0.0,2.0,58,0.00,,CLR,0.00,VWS V14.01,2013-01-19 04:39:00,
2013-01-18 23:44:00,25.8,12.7,30.33,South,188,3.0,5.0,57,0.00,,CLR,0.00,VWS V14.01,2013-01-19 04:44:00,
2013-01-18 23:49:00,25.8,13.1,30.33,WSW,249,0.0,3.0,58,0.00,,CLR,0.00,VWS V14.01,2013-01-19 04:49:00,
2013-01-18 23:54:00,25.8,13.5,30.32,SSW,211,0.0,1.0,59,0.00,,CLR,0.00,VWS V14.01,2013-01-19 04:54:00,
2013-01-18 23:59:00,26.0,13.3,30.32,SW,224,4.0,5.0,58,0.00,,CLR,0.00,VWS V14.01,2013-01-19 04:59:00,